When you browse on this site, cookies collect data to enhance your experience and personalize the content and advertising you see.
Visit our Privacy Policy to learn more. By continuing to use the site, you agree to this use of cookies and data.

Hourly Weather Machali

Today, 9 August, Sunday

Time Temperature Precipitation Wind Pressure Humidity
00:00 +15°C° 0 mm 1 mps 713 mmHg 52%
01:00 +13°C° 0 mm 0 mps 713 mmHg 54%
02:00 +13°C° 0 mm 0 mps 713 mmHg 52%
03:00 +13°C° 0 mm 0 mps 713 mmHg 51%
04:00 +13°C° 0 mm 0 mps 712 mmHg 49%
05:00 +13°C° 0 mm 0 mps 713 mmHg 53%
06:00 +13°C° 0 mm 0 mps 713 mmHg 56%
07:00 +13°C° 0 mm 0 mps 713 mmHg 59%
08:00 +15°C° 0 mm 1 mps 713 mmHg 58%
09:00 +16°C° 0 mm 1 mps 713 mmHg 57%
10:00 +18°C° 0 mm 1 mps 713 mmHg 55%
11:00 +17°C° 0 mm 2 mps 713 mmHg 58%
12:00 +17°C° 0 mm 2 mps 713 mmHg 60%
13:00 +17°C° 0 mm 2 mps 713 mmHg 62%
14:00 +17°C° 0 mm 2 mps 713 mmHg 65%
15:00 +16°C° 0 mm 2 mps 713 mmHg 68%
16:00 +16°C° 0 mm 2 mps 713 mmHg 71%
17:00 +14°C° 0 mm 1 mps 714 mmHg 75%
18:00 +13°C° 0 mm 1 mps 714 mmHg 79%
19:00 +11°C° 0 mm 0 mps 715 mmHg 83%
20:00 +10°C° 0 mm 0 mps 715 mmHg 84%
21:00 +10°C° 0 mm 0 mps 715 mmHg 85%
22:00 +10°C° 0 mm 1 mps 715 mmHg 85%
23:00 +10°C° 0 mm 1 mps 715 mmHg 86%

Tomorrow, 10 August, Monday

Time Temperature Precipitation Wind Pressure Humidity
00:00 +10°C° 0 mm 1 mps 715 mmHg 87%
01:00 +9°C° 0 mm 1 mps 715 mmHg 88%
02:00 +10°C° 0 mm 1 mps 715 mmHg 88%
03:00 +10°C° 0 mm 1 mps 715 mmHg 87%
04:00 +10°C° 0 mm 1 mps 715 mmHg 87%
05:00 +10°C° 0 mm 1 mps 715 mmHg 87%
06:00 +10°C° 0 mm 1 mps 715 mmHg 87%
07:00 +9°C° 0 mm 1 mps 716 mmHg 87%
08:00 +9°C° 0 mm 2 mps 716 mmHg 84%
09:00 +9°C° 0 mm 2 mps 716 mmHg 81%
10:00 +10°C° 0 mm 3 mps 716 mmHg 78%
11:00 +11°C° 0 mm 3 mps 716 mmHg 70%
12:00 +13°C° 0 mm 2 mps 716 mmHg 61%
13:00 +14°C° 0 mm 2 mps 716 mmHg 52%
14:00 +14°C° 0 mm 2 mps 715 mmHg 56%
15:00 +13°C° 0 mm 2 mps 715 mmHg 60%
16:00 +13°C° 0 mm 2 mps 715 mmHg 64%
17:00 +10°C° 0 mm 2 mps 716 mmHg 67%
18:00 +9°C° 0 mm 2 mps 716 mmHg 69%
19:00 +7°C° 0 mm 2 mps 716 mmHg 71%
20:00 +7°C° 0 mm 2 mps 716 mmHg 68%
21:00 +7°C° 0 mm 2 mps 716 mmHg 65%
22:00 +6°C° 0 mm 2 mps 716 mmHg 62%
23:00 +6°C° 0 mm 2 mps 715 mmHg 59%

Day after tomorrow, 11 August, Tuesday

Time Temperature Precipitation Wind Pressure Humidity
00:00 +6°C° 0 mm 2 mps 715 mmHg 57%
01:00 +6°C° 0 mm 2 mps 715 mmHg 54%
02:00 +6°C° 0 mm 2 mps 714 mmHg 52%
03:00 +6°C° 0 mm 2 mps 713 mmHg 51%
04:00 +6°C° 0 mm 2 mps 712 mmHg 49%
05:00 +7°C° 0 mm 1 mps 712 mmHg 48%
06:00 +7°C° 0 mm 1 mps 712 mmHg 47%
07:00 +7°C° 0 mm 1 mps 712 mmHg 46%
08:00 +9°C° 0 mm 1 mps 712 mmHg 44%
09:00 +10°C° 0 mm 2 mps 712 mmHg 42%
10:00 +13°C° 0 mm 2 mps 712 mmHg 39%
11:00 +14°C° 0 mm 2 mps 711 mmHg 41%
12:00 +14°C° 0 mm 2 mps 711 mmHg 42%
13:00 +15°C° 0 mm 2 mps 710 mmHg 43%
14:00 +14°C° 0 mm 2 mps 710 mmHg 49%
15:00 +13°C° 0 mm 2 mps 710 mmHg 54%
16:00 +13°C° 0 mm 1 mps 709 mmHg 60%
17:00 +11°C° 0 mm 1 mps 710 mmHg 63%
18:00 +10°C° 0 mm 1 mps 710 mmHg 66%
19:00 +8°C° 0 mm 1 mps 710 mmHg 69%
20:00 +8°C° 0 mm 1 mps 710 mmHg 68%
21:00 +8°C° 0 mm 1 mps 710 mmHg 66%
22:00 +7°C° 0 mm 1 mps 710 mmHg 65%
23:00 +7°C° 0 mm 1 mps 710 mmHg 66%

12 August, Wednesday

Time Temperature Precipitation Wind Pressure Humidity
00:00 +6°C° 0 mm 1 mps 710 mmHg 68%
01:00 +6°C° 0 mm 1 mps 710 mmHg 70%
02:00 +6°C° 0 mm 1 mps 710 mmHg 71%
03:00 +4°C° 0 mm 0 mps 710 mmHg 72%
04:00 +4°C° 0 mm 0 mps 710 mmHg 72%
05:00 +4°C° 0 mm 0 mps 710 mmHg 73%
06:00 +4°C° 0 mm 0 mps 711 mmHg 73%
07:00 +5°C° 0 mm 0 mps 711 mmHg 73%
08:00 +7°C° 0 mm 1 mps 711 mmHg 70%
09:00 +7°C° 0 mm 2 mps 711 mmHg 67%
10:00 +8°C° 0 mm 2 mps 712 mmHg 64%
11:00 +9°C° 0 mm 2 mps 711 mmHg 62%
12:00 +10°C° 0 mm 2 mps 711 mmHg 60%
13:00 +10°C° 0 mm 2 mps 711 mmHg 58%
14:00 +10°C° 0 mm 2 mps 712 mmHg 61%
15:00 +9°C° 0 mm 2 mps 712 mmHg 65%
16:00 +9°C° 0 mm 2 mps 712 mmHg 68%
17:00 +8°C° 0 mm 2 mps 712 mmHg 74%
18:00 +7°C° 0 mm 1 mps 713 mmHg 79%
19:00 +6°C° 0 mm 1 mps 714 mmHg 85%
20:00 +6°C° 0 mm 1 mps 714 mmHg 82%
21:00 +6°C° 0 mm 1 mps 714 mmHg 79%
22:00 +7°C° 0 mm 1 mps 714 mmHg 76%
23:00 +7°C° 0 mm 1 mps 714 mmHg 75%

13 August, Thursday

Time Temperature Precipitation Wind Pressure Humidity
00:00 +7°C° 0 mm 1 mps 714 mmHg 74%
01:00 +6°C° 0 mm 0 mps 714 mmHg 73%
02:00 +5°C° 0 mm 0 mps 713 mmHg 73%
03:00 +5°C° 0 mm 0 mps 713 mmHg 72%
04:00 +5°C° 0 mm 0 mps 713 mmHg 72%
05:00 +5°C° 0 mm 0 mps 713 mmHg 71%
06:00 +5°C° 0 mm 0 mps 713 mmHg 71%
07:00 +6°C° 0 mm 1 mps 713 mmHg 70%
08:00 +8°C° 0 mm 1 mps 713 mmHg 65%
09:00 +10°C° 0 mm 1 mps 713 mmHg 59%
10:00 +12°C° 0 mm 1 mps 713 mmHg 54%
11:00 +13°C° 0 mm 2 mps 712 mmHg 54%
12:00 +13°C° 0 mm 2 mps 711 mmHg 54%
13:00 +14°C° 0 mm 2 mps 711 mmHg 54%
14:00 +13°C° 0 mm 2 mps 711 mmHg 59%
15:00 +12°C° 0 mm 2 mps 711 mmHg 64%
16:00 +10°C° 0 mm 2 mps 711 mmHg 69%
17:00 +11°C° 0 mm 1 mps 711 mmHg 72%
18:00 +10°C° 0 mm 1 mps 712 mmHg 75%
19:00 +9°C° 0 mm 1 mps 712 mmHg 78%
20:00 +8°C° 0 mm 1 mps 712 mmHg 79%
21:00 +8°C° 0 mm 1 mps 712 mmHg 79%
22:00 +7°C° 0 mm 0 mps 712 mmHg 79%
23:00 +8°C° 0 mm 1 mps 712 mmHg 81%

14 August, Friday

Time Temperature Precipitation Wind Pressure Humidity
00:00 +7°C° 0 mm 1 mps 712 mmHg 84%
01:00 +7°C° 0 mm 1 mps 712 mmHg 86%
02:00 +7°C° 0 mm 1 mps 712 mmHg 85%
03:00 +7°C° 0 mm 1 mps 712 mmHg 85%
04:00 +6°C° 0 mm 1 mps 712 mmHg 84%
05:00 +6°C° 0 mm 1 mps 712 mmHg 82%
06:00 +6°C° 0 mm 1 mps 713 mmHg 81%
07:00 +6°C° 0 mm 1 mps 713 mmHg 80%
08:00 +8°C° 0 mm 1 mps 713 mmHg 73%
09:00 +10°C° 0 mm 1 mps 713 mmHg 65%
10:00 +12°C° 0 mm 2 mps 713 mmHg 58%
11:00 +12°C° 0 mm 2 mps 712 mmHg 58%
12:00 +13°C° 0 mm 2 mps 712 mmHg 57%
13:00 +14°C° 0 mm 2 mps 712 mmHg 56%
14:00 +13°C° 0 mm 2 mps 712 mmHg 59%
15:00 +13°C° 0 mm 2 mps 712 mmHg 63%
16:00 +13°C° 0 mm 2 mps 712 mmHg 66%
17:00 +11°C° 0 mm 1 mps 712 mmHg 72%
18:00 +10°C° 0 mm 1 mps 712 mmHg 77%
19:00 +8°C° 0 mm 1 mps 712 mmHg 83%
20:00 +8°C° 0 mm 1 mps 713 mmHg 82%
21:00 +8°C° 0 mm 1 mps 713 mmHg 80%
22:00 +8°C° 0 mm 1 mps 713 mmHg 79%
23:00 +7°C° 0 mm 1 mps 713 mmHg 80%
Show more